Probability
0 0 0 0 0 0 3 3 0 0 0 0 3 0 0 0 0 0 3 3 3 3 0 0 0 0 0 0 0 0 0 0 0 0 0 0 0 0 0 0 0 0 0
0 0 0 0 0 0 0 3 3 0 0 0 0 0 0 0 0 0 0 0 3 0 0 0 0 0 0 0 0 0 0 0 0 0 0 0 0 0 0 0 0 0 0
0 0 0 0 0 0 0 0 0 0 0 0 0 0 0 0 0 0 0 0 0 0 0 0 0 0 0 0 0 0 0 0 0 0 0 0 0 0 0 0 0 0 0
0 0 0 0 0 0 0 0 0 0 0 0 0 0 0 0 0 0 0 0 0 0 0 0 0 0 0 0 0 0 0 0 0 0 0 0 0 0 0 0 0 0 0
0 0 0 0 0 0 0 0 0 0 0 0 0 0 0 0 0 0 0 0 0 0 0 0 0 0 0 0 0 0 0 0 0 0 0 0 0 0 0 0 0 0 0
0 0 0 0 0 0 0 0 0 0 0 0 0 0 0 0 0 0 0 0 0 0 0 0 0 0 0 0 0 0 0 0 0 0 0 0 0 0 0 0 0 0 0
0 0 0 0 0 0 0 0 0 0 0 0 0 0 0 0 0 0 0 0 0 0 0 0 0 0 0 0 0 0 0 0 0 0 0 0 0 0 0 0 0 0 0
0 0 0 0 0 0 0 0 0 0 0 0 0 0 0 0 0 0 0 0 0 0 0 0 0 0 0 0 0 0 0 0 0 0 0 0 0 0 0 0 0 0 0
0 0 0 0 0 0 0 0 0 0 0 0 0 0 0 0 0 0 0 0 0 0 0 0 0 0 0 0 0 0 0 0 0 0 0 0 0 0 0 0 0 0 0
0 0 0 0 0 0 0 0 0 0 0 0 0 0 0 0 0 0 0 0 0 0 0 0 0 0 0 0 0 0 0 0 0 0 0 0 0 0 0 0 0 0 0
0 0 0 0 0 0 0 0 0 0 0 0 0 0 0 0 0 0 0 0 0 0 0 0 0 0 0 0 0 0 0 0 0 0 0 0 0 0 0 0 0 0 0
0 0 0 0 0 0 0 0 0 0 0 0 0 0 0 0 0 0 0 0 0 0 0 0 0 0 0 0 0 0 0 0 0 0 0 0 0 0 0 0 0 0 0
0 0 0 0 0 0 0 0 0 0 0 0 0 0 0 0 0 0 0 0 0 0 0 0 0 0 0 0 0 0 0 0 0 0 0 0 0 0 0 0 0 0 0
0 0 0 0 0 0 0 0 0 0 0 0 0 0 0 0 0 0 0 0 0 0 0 0 0 0 0 0 0 0 0 0 0 0 0 0 0 0 0 0 0 0 0
0 0 0 0 0 0 0 0 0 0 0 0 0 0 0 0 0 0 0 0 0 0 0 0 0 0 0 0 0 0 0 0 0 0 0 0 0 0 0 0 0 0 0
0 0 0 0 0 0 0 0 0 0 0 0 0 0 0 0 0 0 0 0 0 0 0 0 0 0 0 0 0 0 0 0 0 0 0 0 0 0 0 0 0 0 0
0 0 0 0 0 0 0 0 0 0 0 0 0 0 0 0 0 0 0 0 0 0 0 0 0 0 0 0 0 0 0 0 0 0 0 0 0 0 0 0 0 0 0
0 0 0 0 0 0 0 0 0 0 0 0 0 0 0 0 0 0 0 0 0 0 0 0 0 0 0 0 0 0 0 0 0 0 0 0 0 0 0 0 0 0 0
0 0 0 0 0 0 0 0 0 0 0 0 0 0 0 0 0 0 0 0 0 0 0 0 0 0 0 0 0 0 0 0 0 0 0 0 0 0 0 0 0 0 0
0 0 0 0 0 0 0 0 0 0 0 0 0 0 0 0 0 0 0 0 0 0 0 0 0 0 0 0 0 0 0 0 0 0 0 0 0 0 0 0 0 0 0
0 0 0 0 0 0 0 0 0 0 0 0 0 0 0 0 0 0 0 0 0 0 0 0 0 0 0 0 0 0 0 0 0 0 0 0 0 0 0 0 0 0 0
0 0 0 0 0 0 0 0 0 0 0 0 0 0 0 0 0 0 0 0 0 0 0 0 0 0 0 0 0 0 0 0 0 0 0 0 0 0 0 0 0 0 0
0 0 0 0 0 0 0 0 0 0 0 0 0 0 0 0 0 0 0 0 0 0 0 0 0 0 0 0 0 0 0 0 0 0 0 0 0 0 0 0 0 0 0
0 0 0 0 0 0 0 0 0 0 0 0 0 0 0 0 0 0 0 0 0 0 0 0 0 0 0 0 0 0 0 0 0 0 0 0 0 0 0 0 0 0 0
0 0 0 0 0 0 0 0 0 0 0 0 0 0 0 0 0 0 0 0 0 0 0 0 0 0 0 0 0 0 0 0 0 0 0 0 0 0 0 0 0 0 0
0 0 0 0 0 0 0 0 0 0 0 0 0 0 0 0 0 0 0 0 0 0 0 0 0 0 0 0 0 0 0 0 0 0 0 0 0 0 0 0 0 0 0
Height
5703 5704 5705 5707 5708 5710 5712 5713 5715 5717 5719 5721 5723 5725 5727 5730 5733 5735 5738 5741 5743 5745 5748 5751 5753 5756 5758 5760 5762 5764 5766 5768 5770 5772 5774 5776 5778 5780 5782 5784 5785 5787 5789
5690 5692 5694 5696 5698 5699 5701 5703 5705 5706 5708 5711 5713 5714 5717 5719 5722 5725 5728 5731 5733 5736 5738 5741 5744 5747 5749 5752 5754 5756 5758 5760 5762 5764 5766 5769 5771 5773 5774 5776 5778 5780 5781
5678 5681 5682 5685 5686 5688 5690 5692 5694 5696 5697 5700 5702 5705 5707 5708 5711 5715 5718 5721 5724 5726 5729 5731 5734 5736 5739 5741 5744 5746 5749 5751 5753 5755 5758 5761 5763 5765 5767 5768 5770 5771 5773
5667 5669 5671 5673 5675 5677 5679 5680 5682 5684 5685 5688 5690 5693 5696 5699 5701 5704 5708 5711 5713 5716 5719 5721 5724 5727 5729 5732 5734 5737 5739 5742 5744 5746 5749 5752 5754 5757 5758 5760 5761 5763 5764
5655 5657 5659 5661 5663 5665 5667 5669 5670 5672 5673 5676 5678 5681 5684 5687 5690 5693 5697 5700 5703 5706 5708 5711 5714 5717 5719 5722 5725 5727 5730 5732 5735 5737 5740 5742 5745 5747 5749 5751 5753 5754 5755
5643 5645 5647 5649 5651 5653 5655 5657 5659 5660 5662 5664 5666 5669 5673 5676 5678 5682 5686 5689 5692 5695 5698 5701 5704 5706 5709 5712 5715 5718 5720 5723 5725 5728 5730 5732 5735 5737 5739 5741 5743 5744 5746
5631 5633 5634 5637 5639 5641 5643 5645 5647 5648 5650 5652 5655 5658 5661 5663 5667 5670 5674 5678 5681 5684 5687 5690 5693 5696 5699 5702 5705 5708 5710 5712 5715 5718 5720 5722 5725 5727 5729 5731 5732 5734 5736
5619 5621 5622 5624 5626 5628 5631 5633 5635 5636 5638 5640 5643 5645 5648 5651 5655 5658 5662 5666 5669 5673 5676 5679 5682 5685 5688 5691 5694 5697 5700 5702 5705 5707 5710 5712 5714 5716 5718 5720 5722 5724 5725
5608 5609 5611 5612 5614 5616 5619 5621 5623 5624 5626 5628 5630 5633 5636 5639 5642 5646 5650 5654 5657 5660 5664 5667 5671 5674 5677 5680 5683 5686 5689 5691 5694 5697 5699 5701 5703 5706 5707 5709 5710 5712 5714
5596 5597 5599 5600 5602 5604 5606 5608 5611 5613 5614 5616 5618 5620 5623 5627 5630 5634 5637 5641 5645 5648 5652 5655 5659 5662 5665 5669 5672 5675 5677 5680 5683 5685 5688 5690 5692 5694 5696 5697 5699 5700 5701
5584 5585 5587 5588 5590 5592 5594 5596 5598 5600 5602 5604 5606 5609 5612 5615 5618 5622 5625 5629 5633 5636 5640 5643 5647 5650 5654 5657 5660 5663 5666 5669 5671 5674 5676 5679 5681 5682 5684 5685 5687 5688 5689
5573 5574 5575 5576 5578 5579 5581 5583 5586 5588 5590 5592 5594 5597 5600 5603 5607 5610 5614 5617 5621 5624 5628 5631 5635 5638 5642 5645 5648 5652 5654 5657 5659 5662 5664 5666 5668 5670 5672 5673 5674 5675 5676
5561 5562 5563 5565 5566 5568 5569 5571 5574 5576 5578 5580 5582 5585 5589 5592 5595 5599 5602 5606 5609 5613 5616 5619 5623 5626 5630 5633 5636 5639 5642 5645 5647 5650 5652 5654 5656 5657 5659 5660 5661 5663 5664
5551 5551 5552 5553 5554 5556 5558 5560 5562 5565 5567 5569 5571 5574 5577 5581 5584 5587 5591 5594 5598 5601 5605 5608 5611 5614 5617 5621 5624 5627 5630 5632 5635 5637 5639 5641 5643 5645 5646 5648 5649 5650 5652
5540 5540 5540 5541 5542 5544 5546 5548 5551 5553 5555 5558 5560 5563 5566 5569 5572 5576 5579 5583 5586 5589 5593 5596 5599 5602 5605 5608 5611 5614 5617 5620 5622 5625 5627 5629 5631 5632 5634 5635 5637 5638 5639
5528 5528 5529 5530 5531 5533 5535 5537 5539 5541 5543 5546 5549 5551 5554 5557 5561 5564 5568 5571 5575 5578 5581 5584 5587 5590 5593 5596 5598 5601 5605 5608 5610 5612 5614 5616 5618 5620 5621 5623 5624 5625 5627
5518 5518 5518 5518 5519 5521 5522 5525 5527 5529 5531 5534 5537 5539 5542 5545 5549 5552 5556 5560 5563 5566 5570 5573 5576 5579 5581 5584 5586 5589 5592 5595 5597 5599 5601 5603 5605 5607 5609 5610 5611 5613 5614
5507 5507 5507 5507 5508 5509 5510 5513 5515 5517 5520 5522 5525 5527 5531 5534 5537 5541 5544 5548 5551 5555 5558 5561 5564 5567 5569 5572 5574 5576 5579 5582 5584 5586 5589 5591 5593 5594 5596 5597 5599 5600 5601
5496 5496 5495 5496 5496 5497 5499 5501 5503 5506 5508 5511 5513 5516 5519 5522 5526 5529 5533 5536 5540 5543 5547 5550 5553 5555 5558 5560 5562 5564 5567 5570 5572 5574 5576 5578 5580 5581 5583 5585 5586 5588 5588
5485 5485 5484 5484 5485 5486 5487 5489 5491 5494 5496 5499 5502 5504 5507 5511 5514 5518 5521 5525 5528 5532 5535 5538 5541 5543 5546 5548 5550 5552 5555 5558 5560 5562 5564 5565 5567 5568 5570 5572 5573 5575 5576
5475 5474 5474 5474 5474 5474 5476 5478 5480 5482 5485 5487 5490 5493 5496 5499 5502 5506 5509 5513 5517 5520 5524 5527 5529 5532 5534 5536 5538 5540 5543 5545 5548 5550 5552 5553 5554 5556 5557 5559 5561 5562 5563
5466 5465 5464 5463 5463 5464 5465 5467 5469 5472 5474 5476 5479 5482 5484 5488 5491 5495 5498 5501 5505 5508 5511 5514 5517 5520 5522 5524 5526 5529 5531 5533 5536 5538 5540 5541 5542 5543 5545 5547 5548 5549 5550
5457 5456 5455 5454 5454 5454 5455 5457 5459 5461 5463 5466 5468 5471 5474 5477 5480 5484 5487 5490 5493 5496 5499 5503 5506 5508 5511 5513 5515 5517 5519 5521 5524 5526 5528 5529 5530 5532 5533 5535 5536 5537 5538
5449 5447 5447 5446 5446 5446 5446 5447 5449 5451 5453 5455 5458 5461 5464 5467 5470 5473 5476 5479 5482 5485 5488 5491 5494 5497 5500 5502 5504 5506 5508 5510 5512 5514 5516 5517 5519 5520 5522 5523 5524 5525 5526
5441 5439 5438 5438 5437 5437 5438 5439 5440 5442 5443 5445 5448 5451 5454 5457 5460 5463 5466 5469 5472 5474 5477 5480 5483 5486 5489 5491 5493 5495 5497 5499 5501 5503 5505 5506 5507 5509 5510 5512 5513 5514 5515
5433 5431 5430 5429 5429 5429 5429 5430 5431 5432 5434 5436 5438 5441 5444 5447 5450 5453 5456 5458 5462 5464 5467 5470 5472 5475 5478 5480 5482 5485 5486 5488 5490 5492 5494 5495 5497 5498 5500 5501 5502 5503 5504
Wind_Speed
40 41 40 40 39 39 39 39 39 40 40 40 39 40 40 40 39 38 37 37 37 37 37 37 37 36 36 36 36 35 34 34 34 34 34 34 33 33 33 33 33 33 33
41 41 41 40 40 40 40 40 40 41 42 42 41 41 41 41 40 39 38 39 38 38 38 38 38 38 38 38 37 37 36 36 35 35 35 35 35 35 34 34 34 34 34
42 41 41 41 41 41 41 41 42 42 43 43 42 42 41 42 42 41 40 40 40 39 39 39 39 39 38 38 38 37 37 37 37 37 36 36 36 36 36 36 36 36 36
41 41 42 42 42 42 42 42 42 43 44 44 44 44 43 42 42 42 41 42 41 40 41 40 40 40 40 39 39 38 38 38 38 38 37 37 37 38 37 37 36 36 37
41 41 41 41 42 42 42 43 44 44 45 45 45 45 44 44 44 44 43 43 43 42 42 41 41 41 41 40 40 40 39 39 39 39 39 38 38 38 38 38 38 38 38
42 41 41 42 42 43 43 44 44 45 45 46 46 46 45 45 45 45 44 43 43 43 43 43 43 42 41 40 41 41 41 40 41 40 40 40 39 39 39 38 38 39 39
42 42 42 42 43 43 43 44 44 45 46 46 46 46 46 46 46 46 46 45 45 44 44 44 44 44 42 41 42 42 42 41 41 41 41 41 41 40 40 40 39 39 39
42 42 42 43 43 43 43 44 44 45 45 45 45 46 47 47 47 47 47 46 46 46 45 45 45 44 42 42 42 42 42 42 42 42 42 42 42 42 41 42 42 41 41
42 43 43 43 43 43 43 44 44 45 45 45 46 47 47 47 47 47 46 47 47 47 46 47 45 44 44 43 43 43 42 42 42 42 42 43 43 43 43 44 44 43 42
42 42 42 43 44 45 45 45 45 45 46 46 46 45 46 47 47 48 47 46 47 48 47 47 46 45 44 44 45 44 43 43 43 44 44 44 45 45 44 44 44 45 44
40 42 43 43 44 45 45 46 45 44 45 45 45 46 47 47 47 47 47 47 47 48 47 45 45 45 45 45 46 45 45 45 45 46 46 44 45 45 45 45 45 45 45
39 40 41 43 44 44 44 44 45 44 44 45 44 45 44 45 46 46 46 46 47 47 46 47 45 45 45 46 46 45 46 46 45 46 46 46 47 46 46 46 46 45 45
39 40 40 42 43 43 42 42 43 43 43 43 43 44 44 45 45 46 45 46 46 46 46 46 46 46 46 46 46 46 46 46 46 46 46 47 46 46 46 46 46 45 45
38 39 40 41 43 43 42 42 42 43 44 43 43 43 43 45 45 45 46 46 47 46 46 45 46 46 46 46 46 46 46 46 46 46 45 45 46 46 45 45 45 45 45
38 38 38 39 41 42 42 42 42 44 44 43 43 43 43 44 45 45 45 46 46 46 45 45 44 45 45 45 46 46 46 45 45 45 45 44 45 46 45 45 44 45 45
37 37 38 39 40 41 42 43 43 43 44 43 43 44 44 43 44 44 44 45 45 44 44 44 43 43 44 45 45 46 46 45 45 45 45 44 44 44 44 44 44 44 44
37 37 38 38 39 40 42 43 43 43 43 44 44 44 44 44 45 45 44 44 44 44 44 43 43 43 44 45 45 45 45 45 45 45 45 45 44 44 44 44 44 44 44
37 37 37 38 39 39 40 41 42 42 42 42 42 43 44 45 45 45 45 45 45 44 44 44 43 43 43 44 44 45 45 44 44 44 44 44 44 45 45 44 44 45 45
37 37 37 37 38 39 40 40 41 41 42 42 42 42 43 43 43 44 44 44 44 44 43 44 44 44 44 44 44 44 44 43 43 43 43 44 44 45 45 45 45 45 45
34 35 36 37 37 38 39 40 41 41 41 41 41 41 42 42 42 42 42 43 43 42 43 43 43 43 43 43 43 43 43 43 43 42 43 44 45 45 45 45 45 44 44
32 33 33 34 36 36 37 38 38 38 39 40 40 40 40 40 41 41 41 41 42 43 43 42 42 42 42 42 42 42 43 43 42 41 42 43 43 44 44 44 44 44 44
31 31 31 31 32 34 35 35 36 36 37 38 38 39 39 39 39 39 39 40 40 41 42 42 41 41 40 41 41 41 41 41 41 41 41 41 42 42 42 43 43 43 43
30 29 29 29 29 30 31 33 33 35 36 37 37 37 38 36 37 37 37 38 38 39 40 40 40 40 40 40 40 40 40 40 40 40 40 41 41 41 41 41 41 41 41
28 28 28 27 28 28 29 30 31 32 33 35 36 36 37 36 35 35 36 36 37 37 38 39 39 39 39 39 39 40 40 40 40 40 40 40 40 40 39 39 39 39 39
27 27 27 27 27 27 28 28 30 31 32 33 34 36 36 36 35 35 35 35 35 36 37 38 38 38 38 38 38 38 38 38 38 38 38 37 37 37 37 37 37 37 37
27 27 26 27 27 27 27 28 29 30 31 32 33 34 35 35 35 35 35 35 35 35 35 36 36 37 36 36 36 36 36 36 37 37 36 36 35 35 35 35 36 36 36
Wind_Direction
261 260 258 257 256 256 256 255 255 255 254 253 252 251 250 250 251 251 251 251 253 252 251 251 251 251 252 252 253 254 254 254 253 253 253 254 255 256 257 257 258 258 258
260 259 257 257 256 256 255 255 254 255 255 254 253 253 252 250 250 249 249 250 251 252 251 250 251 251 252 253 254 254 254 255 254 254 254 253 254 256 258 258 258 259 259
260 258 257 257 256 256 255 254 254 254 253 253 252 250 251 249 248 249 249 250 250 251 251 251 251 252 253 252 253 255 254 254 254 253 253 253 253 255 257 258 258 259 260
260 258 257 257 257 257 256 254 254 254 253 252 252 249 249 250 249 249 249 250 250 251 251 251 252 252 253 252 253 255 255 254 253 253 253 254 254 255 257 258 259 260 261
260 258 258 257 257 256 256 255 254 253 253 253 252 250 249 250 249 249 249 251 251 251 251 250 252 253 253 253 254 254 255 254 253 253 254 254 255 256 258 259 260 261 262
260 258 257 257 257 256 255 254 254 253 252 252 251 251 250 250 249 248 249 250 251 251 251 251 251 253 253 253 254 254 255 255 254 254 254 255 256 258 259 261 262 262 262
261 259 257 257 256 256 255 254 254 254 253 252 251 251 250 250 249 248 248 249 250 251 251 251 252 253 253 253 253 253 255 255 254 255 255 255 257 258 259 261 262 263 263
262 260 258 257 255 254 254 254 254 254 254 253 251 250 250 250 249 248 247 248 249 250 251 251 251 251 251 252 253 254 255 255 255 255 256 257 257 258 260 261 262 262 263
263 261 259 257 255 254 253 254 253 253 253 253 251 250 249 250 249 248 248 248 248 248 250 250 251 251 252 252 253 254 255 255 255 255 256 257 258 258 260 262 262 263 264
263 261 259 257 255 253 253 253 253 254 253 253 251 249 249 248 249 249 249 249 249 249 250 250 250 251 252 252 253 253 254 255 256 256 257 258 258 259 260 262 263 264 266
264 262 259 257 255 254 253 252 251 251 252 252 252 251 251 250 250 250 250 250 250 249 249 250 251 251 251 251 253 254 254 255 256 257 258 259 259 260 261 263 265 266 266
265 263 260 258 257 256 254 252 250 250 250 250 251 250 249 249 250 250 250 250 250 250 250 251 252 252 252 252 253 254 255 256 257 259 259 259 260 261 263 266 267 266 266
266 263 261 258 256 255 255 252 250 249 249 250 251 251 251 250 250 250 249 249 249 250 251 252 253 253 253 254 254 255 256 257 258 260 261 262 263 263 265 266 266 266 265
269 266 262 259 256 255 254 252 251 250 250 250 251 251 251 250 250 250 249 249 250 251 251 252 254 254 254 254 254 255 257 257 257 259 260 261 262 264 264 265 265 265 266
270 267 264 260 258 255 255 254 252 251 251 251 250 251 250 250 250 249 250 250 250 251 252 253 253 254 254 254 255 255 256 256 256 257 258 260 261 262 263 264 265 265 266
270 267 264 261 259 258 256 255 254 252 251 251 250 250 250 250 249 249 250 250 250 251 252 252 253 254 254 254 255 255 255 256 257 258 259 259 261 263 263 264 264 265 266
271 269 266 263 261 260 258 256 255 253 252 251 250 250 250 250 249 249 249 249 250 251 252 252 253 254 254 254 255 255 256 257 257 257 258 259 261 263 264 264 264 265 266
271 269 268 264 261 260 259 257 255 254 253 252 250 249 250 250 249 249 249 249 249 250 250 251 253 254 255 255 256 256 257 258 258 258 258 260 261 262 263 264 265 265 266
273 270 268 267 263 260 259 257 255 254 254 253 251 250 250 250 250 249 249 248 249 250 250 251 253 254 255 255 256 256 257 258 259 258 259 260 261 263 264 265 265 266 267
277 273 269 267 265 262 259 257 256 254 253 252 251 249 249 249 249 249 248 248 248 250 251 252 253 254 255 256 257 257 257 258 259 259 259 260 261 262 264 264 265 266 266
279 275 272 269 266 262 259 257 255 254 253 252 249 249 248 248 248 248 248 248 249 249 250 251 253 254 256 256 256 257 257 258 259 260 260 261 262 262 263 263 264 265 266
281 278 273 270 267 263 259 256 254 253 253 252 250 249 249 248 248 248 249 249 249 249 249 250 252 253 255 256 256 256 256 257 259 260 261 261 262 263 263 264 264 265 267
282 279 277 271 267 264 260 257 254 253 252 252 250 248 248 248 248 248 249 250 250 250 250 251 252 253 254 255 256 256 257 258 259 260 261 261 262 263 263 263 264 265 266
283 279 277 273 269 265 261 258 255 253 252 250 248 247 248 248 248 248 248 249 250 251 251 251 252 253 254 255 256 258 259 259 259 260 260 261 261 262 262 263 263 264 265
284 280 278 274 270 267 263 260 257 253 253 250 248 248 248 248 247 247 247 249 250 250 251 252 252 253 254 255 256 258 258 259 259 260 259 260 260 260 261 262 263 263 264
284 281 279 276 271 268 266 262 258 255 254 253 250 249 249 249 248 248 248 249 249 250 251 251 252 252 253 254 256 257 258 258 259 260 260 259 259 259 261 262 262 262 262